• In Belgien
  • Länderverzeichnis
  • Für 7 Tage
  • Wassertemperatur
  • Satellitenkarten
  • Wetterkarte
  • Widgets
  • user-avatar
    Anmelden

    Stündliche Wetter Proszkow

    Heute, 25 September, Dienstag

    Zeit Temperatur Niederschläge Wind Luftdruck Luftfeuchtigkeit
    00:00 +5°C° 0 mm 5 m/S 758 mmHg 80%
    01:00 +5°C° 0 mm 5 m/S 759 mmHg 81%
    02:00 +5°C° 0 mm 5 m/S 759 mmHg 81%
    03:00 +3°C° 0 mm 5 m/S 760 mmHg 82%
    04:00 +3°C° 0 mm 5 m/S 760 mmHg 82%
    05:00 +3°C° 0 mm 5 m/S 761 mmHg 81%
    06:00 +3°C° 0 mm 5 m/S 761 mmHg 81%
    07:00 +5°C° 0 mm 5 m/S 762 mmHg 80%
    08:00 +6°C° 0 mm 5 m/S 762 mmHg 74%
    09:00 +8°C° 0 mm 5 m/S 763 mmHg 68%
    10:00 +9°C° 0 mm 6 m/S 763 mmHg 61%
    11:00 +10°C° 0.1 mm 5 m/S 763 mmHg 57%
    12:00 +12°C° 0.1 mm 5 m/S 763 mmHg 53%
    13:00 +13°C° 0.1 mm 5 m/S 763 mmHg 48%
    14:00 +13°C° 0 mm 5 m/S 763 mmHg 49%
    15:00 +13°C° 0 mm 5 m/S 763 mmHg 49%
    16:00 +12°C° 0 mm 4 m/S 763 mmHg 49%
    17:00 +11°C° 0 mm 4 m/S 764 mmHg 55%
    18:00 +10°C° 0 mm 3 m/S 764 mmHg 61%
    19:00 +8°C° 0 mm 2 m/S 764 mmHg 67%
    20:00 +8°C° 0 mm 2 m/S 765 mmHg 68%
    21:00 +7°C° 0 mm 2 m/S 765 mmHg 70%
    22:00 +7°C° 0 mm 2 m/S 766 mmHg 71%
    23:00 +7°C° 0 mm 2 m/S 766 mmHg 72%

    Morgen, 26 September, Mittwoch

    Zeit Temperatur Niederschläge Wind Luftdruck Luftfeuchtigkeit
    00:00 +6°C° 0 mm 2 m/S 766 mmHg 73%
    01:00 +6°C° 0 mm 2 m/S 766 mmHg 74%
    02:00 +6°C° 0 mm 2 m/S 766 mmHg 74%
    03:00 +5°C° 0 mm 2 m/S 765 mmHg 74%
    04:00 +5°C° 0 mm 2 m/S 765 mmHg 75%
    05:00 +6°C° 0 mm 2 m/S 765 mmHg 73%
    06:00 +6°C° 0 mm 2 m/S 765 mmHg 72%
    07:00 +6°C° 0 mm 2 m/S 765 mmHg 71%
    08:00 +8°C° 0 mm 2 m/S 765 mmHg 63%
    09:00 +10°C° 0 mm 3 m/S 765 mmHg 55%
    10:00 +13°C° 0 mm 3 m/S 765 mmHg 47%
    11:00 +13°C° 0 mm 3 m/S 764 mmHg 44%
    12:00 +14°C° 0 mm 4 m/S 763 mmHg 40%
    13:00 +15°C° 0 mm 4 m/S 763 mmHg 37%
    14:00 +15°C° 0 mm 4 m/S 762 mmHg 39%
    15:00 +15°C° 0 mm 4 m/S 762 mmHg 41%
    16:00 +15°C° 0 mm 4 m/S 761 mmHg 43%
    17:00 +14°C° 0 mm 4 m/S 761 mmHg 46%
    18:00 +13°C° 0 mm 3 m/S 761 mmHg 49%
    19:00 +11°C° 0 mm 3 m/S 761 mmHg 52%
    20:00 +11°C° 0 mm 3 m/S 761 mmHg 52%
    21:00 +11°C° 0 mm 4 m/S 761 mmHg 51%
    22:00 +11°C° 0 mm 4 m/S 761 mmHg 51%
    23:00 +11°C° 0 mm 4 m/S 760 mmHg 51%

    übermorgen, 27 September, Donnerstag

    Zeit Temperatur Niederschläge Wind Luftdruck Luftfeuchtigkeit
    00:00 +11°C° 0 mm 4 m/S 760 mmHg 52%
    01:00 +11°C° 0 mm 4 m/S 760 mmHg 53%
    02:00 +10°C° 0 mm 4 m/S 760 mmHg 53%
    03:00 +10°C° 0 mm 4 m/S 760 mmHg 54%
    04:00 +10°C° 0 mm 4 m/S 760 mmHg 54%
    05:00 +11°C° 0 mm 4 m/S 760 mmHg 55%
    06:00 +11°C° 0 mm 4 m/S 760 mmHg 55%
    07:00 +11°C° 0 mm 4 m/S 760 mmHg 56%
    08:00 +13°C° 0 mm 4 m/S 760 mmHg 53%
    09:00 +15°C° 0 mm 4 m/S 760 mmHg 50%
    10:00 +17°C° 0 mm 5 m/S 760 mmHg 48%
    11:00 +19°C° 0 mm 4 m/S 759 mmHg 48%
    12:00 +21°C° 0 mm 4 m/S 759 mmHg 49%
    13:00 +22°C° 0 mm 4 m/S 759 mmHg 49%
    14:00 +22°C° 0 mm 4 m/S 758 mmHg 51%
    15:00 +22°C° 0 mm 3 m/S 758 mmHg 52%
    16:00 +21°C° 0 mm 3 m/S 757 mmHg 53%
    17:00 +20°C° 0 mm 3 m/S 757 mmHg 57%
    18:00 +18°C° 0 mm 2 m/S 757 mmHg 61%
    19:00 +16°C° 0 mm 2 m/S 757 mmHg 65%
    20:00 +16°C° 0 mm 2 m/S 757 mmHg 64%
    21:00 +16°C° 0 mm 2 m/S 756 mmHg 62%
    22:00 +15°C° 0 mm 2 m/S 756 mmHg 61%
    23:00 +15°C° 0 mm 2 m/S 756 mmHg 59%

    28 September, Freitag

    Zeit Temperatur Niederschläge Wind Luftdruck Luftfeuchtigkeit
    00:00 +15°C° 0 mm 2 m/S 755 mmHg 57%
    01:00 +13°C° 0 mm 3 m/S 755 mmHg 56%
    02:00 +13°C° 0 mm 3 m/S 754 mmHg 56%
    03:00 +13°C° 0 mm 3 m/S 754 mmHg 55%
    04:00 +12°C° 0 mm 3 m/S 753 mmHg 55%
    05:00 +12°C° 0 mm 3 m/S 753 mmHg 56%
    06:00 +12°C° 0 mm 3 m/S 753 mmHg 57%
    07:00 +12°C° 0 mm 3 m/S 753 mmHg 58%
    08:00 +14°C° 0 mm 3 m/S 753 mmHg 55%
    09:00 +17°C° 0 mm 4 m/S 753 mmHg 51%
    10:00 +18°C° 0 mm 4 m/S 753 mmHg 48%
    11:00 +19°C° 0 mm 4 m/S 753 mmHg 47%
    12:00 +20°C° 0 mm 4 m/S 753 mmHg 46%
    13:00 +20°C° 0 mm 4 m/S 753 mmHg 46%
    14:00 +20°C° 0 mm 4 m/S 753 mmHg 49%
    15:00 +19°C° 0 mm 4 m/S 752 mmHg 53%
    16:00 +18°C° 0 mm 4 m/S 752 mmHg 57%
    17:00 +17°C° 0 mm 4 m/S 753 mmHg 63%
    18:00 +14°C° 0 mm 3 m/S 753 mmHg 68%
    19:00 +13°C° 0 mm 3 m/S 754 mmHg 73%
    20:00 +12°C° 0 mm 3 m/S 754 mmHg 72%
    21:00 +12°C° 0 mm 3 m/S 754 mmHg 71%
    22:00 +12°C° 0 mm 2 m/S 754 mmHg 70%
    23:00 +12°C° 0 mm 2 m/S 755 mmHg 70%

    29 September, Samstag

    Zeit Temperatur Niederschläge Wind Luftdruck Luftfeuchtigkeit
    00:00 +10°C° 0 mm 2 m/S 755 mmHg 70%
    01:00 +10°C° 0 mm 2 m/S 755 mmHg 71%
    02:00 +9°C° 0 mm 2 m/S 755 mmHg 73%
    03:00 +8°C° 0 mm 2 m/S 755 mmHg 76%
    04:00 +8°C° 0 mm 2 m/S 755 mmHg 79%
    05:00 +8°C° 0 mm 2 m/S 756 mmHg 79%
    06:00 +8°C° 0 mm 2 m/S 756 mmHg 79%
    07:00 +8°C° 0 mm 2 m/S 756 mmHg 80%
    08:00 +9°C° 0 mm 2 m/S 757 mmHg 73%
    09:00 +12°C° 0 mm 2 m/S 757 mmHg 66%
    10:00 +13°C° 0 mm 2 m/S 757 mmHg 60%
    11:00 +14°C° 0 mm 2 m/S 757 mmHg 56%
    12:00 +15°C° 0 mm 2 m/S 757 mmHg 52%
    13:00 +15°C° 0 mm 2 m/S 757 mmHg 48%
    14:00 +15°C° 0 mm 2 m/S 757 mmHg 48%
    15:00 +15°C° 0 mm 2 m/S 757 mmHg 49%
    16:00 +15°C° 0 mm 2 m/S 757 mmHg 50%
    17:00 +14°C° 0 mm 2 m/S 757 mmHg 53%
    18:00 +13°C° 0 mm 1 m/S 757 mmHg 57%
    19:00 +11°C° 0 mm 1 m/S 758 mmHg 61%
    20:00 +11°C° 0 mm 1 m/S 758 mmHg 62%
    21:00 +10°C° 0 mm 1 m/S 758 mmHg 64%
    22:00 +10°C° 0 mm 1 m/S 758 mmHg 65%
    23:00 +8°C° 0 mm 2 m/S 758 mmHg 66%

    30 September, Sonntag

    Zeit Temperatur Niederschläge Wind Luftdruck Luftfeuchtigkeit
    00:00 +8°C° 0 mm 2 m/S 758 mmHg 67%
    01:00 +7°C° 0 mm 2 m/S 758 mmHg 68%
    02:00 +7°C° 0 mm 2 m/S 757 mmHg 68%
    03:00 +6°C° 0 mm 2 m/S 757 mmHg 69%
    04:00 +7°C° 0 mm 1 m/S 757 mmHg 69%
    05:00 +7°C° 0 mm 1 m/S 757 mmHg 69%
    06:00 +8°C° 0 mm 1 m/S 757 mmHg 68%
    07:00 +8°C° 0 mm 1 m/S 757 mmHg 67%
    08:00 +9°C° 0 mm 2 m/S 757 mmHg 60%
    09:00 +12°C° 0 mm 2 m/S 756 mmHg 54%
    10:00 +14°C° 0 mm 2 m/S 756 mmHg 47%
    11:00 +14°C° 0 mm 2 m/S 756 mmHg 44%
    12:00 +15°C° 0 mm 2 m/S 755 mmHg 41%
    13:00 +16°C° 0 mm 2 m/S 755 mmHg 38%
    14:00 +16°C° 0 mm 2 m/S 754 mmHg 38%
    15:00 +16°C° 0 mm 1 m/S 754 mmHg 39%
    16:00 +16°C° 0 mm 1 m/S 754 mmHg 40%
    17:00 +14°C° 0 mm 1 m/S 754 mmHg 44%
    18:00 +13°C° 0 mm 1 m/S 754 mmHg 49%
    19:00 +11°C° 0 mm 1 m/S 754 mmHg 53%
    20:00 +11°C° 0 mm 1 m/S 754 mmHg 55%
    21:00 +10°C° 0 mm 1 m/S 754 mmHg 57%
    22:00 +9°C° 0 mm 2 m/S 754 mmHg 59%
    23:00 +9°C° 0 mm 2 m/S 754 mmHg 62%
    Mehr zeigen